Location: Antoign�
(47.0844°N, 0.1131°W)
Time: 03:45:41
(UTC+00:00)

Cosmos 1000 Rocket - Pass Details

Date: 03 March 2021
Orbit: 954 x 991 km, 82.9° (Epoch: 16 April)

Event Time Altitude Azimuth Distance (km) Brightness Sun altitude
Rises 20:40:16 0° 351° (N) 3,690 8.0 -29.3°
Reaches altitude 10° 20:42:47 10° 352° (N) 2,743 7.2 -29.7°
Enters shadow 20:48:33 76° 4° (N) 1,019 4.5 -30.6°
